STARLINK-1349 (45587 NORAD) Tracking and Keplerian Element Data

This shows tracking and keplerian element data for the satellite.

Feedback or suggestion? Click here.




ElementValue
Catalog45587
NameSTARLINK-1349
Epoch Orbit568
Epoch Day145.50001157
Epoch Year2020
RAAN242.928
Inclination52.9979
Eccentricity0.0001084
Argument of Perigee101.4882
Mean Anonmoly331.9022
Mean Motion15.62799206
Decay Rate-0.00021247
L11 45587U 20025BJ 20145.50001157 -.00021247 00000-0 -22640-3 0 9994
L22 45587 52.9979 242.9280 0001084 101.4882 331.9022 15.62799206 5682

Live tracking and technical data element details for STARLINK-1349 (NORAD 45587). STARLINK-1349 can be tracked NOW for your location showing map with azimuth and elevation plus other details from your city location.

Track the satellite on the map from your city or location and see movement details for azimuth, elevation, latitude, longitude, range, height, and movement on the map or in text.







IsCatalogInMostPopularTable: catalog: 45587, numindb: 16
Update: records affected: 1



GetName: 45587 STARLINK-1349

Hit Count: updated at: Tue, 26 May 2020 03:27:49 GMT